Newark, NJ

7:00 AM EDT on May 26, 2017 (GMT -0400)
Newark International

Weather History for KEWR - January, 2014

Change the Weather History Date:

Thursday, January 23, 2014

  Actual Average Record
Temperature  
Mean Temperature 13 °F 32 °F  
Max Temperature 21 °F 39 °F 62 °F (1957)
Min Temperature 5 °F 24 °F -4 °F (1936)
Degree Days  
Heating Degree Days 52 34  
Month to date heating degree days 819 772  
Since 1 July heating degree days 2551 2522  
Cooling Degree Days 0 0  
Month to date cooling degree days 0 0  
Year to date cooling degree days 0 0  
Moisture  
Dew Point 0 °F    
Average Humidity 57    
Maximum Humidity 64    
Minimum Humidity 49    
Precipitation  
Precipitation 0.00 in 0.11 in 2.30 in (1998)
Month to date precipitation 2.69 2.68  
Year to date precipitation 2.69 2.68  
Snow  
Snow 0.00 in 0.20 in 24.00 in (2016)
Month to date snowfall 19.1 5.7  
Since 1 July snowfall 28.5 11.5  
Snow Depth 0.00 in    
Sea Level Pressure  
Sea Level Pressure 30.16 in    
Wind  
Wind Speed 11 mph (West)    
Max Wind Speed 21 mph    
Max Gust Speed 26 mph    
Visibility 10 miles    
Events      
T = Trace of Precipitation, MM = Missing Value Source: NWS Daily Summary

Daily Weather History Graph

Daily Weather History Graph

Search for Another Location

Airport or City:

Trip Planner

Search our weather history database for the weather conditions in past years. The results will help you decide how hot, cold, wet, or windy it might be!

Date:

Astronomy

Jan. 23, 2014 Rise Set
Actual Time 7:14 AM EST 5:03 PM EST
Civil Twilight 6:44 AM EST 5:32 PM EST
Nautical Twilight 6:11 AM EST 6:06 PM EST
Astronomical Twilight 5:38 AM EST 6:38 PM EST
Moon No Moon Rise 10:45 AM EST (1/23)
Length of Visible Light 10h 48m
Length of Day
9h 49m
Waning Gibbous, 55% of the Moon is Illuminated
Jan 23
Waning Gibbous
Jan 24
Last Quarter
Jan 30
New
Feb 6
First Quarter
Feb 14
Full

Hourly Weather History & Observations

Time (EST) Temp. Windchill Dew Point Humidity Pressure Visibility Wind Dir Wind Speed Gust Speed Precip Events Conditions
12:51 AM 8.1 °F -3.2 °F -6.0 °F 53% 30.03 in 10.0 mi NW 6.9 mph - N/A   Overcast
1:51 AM 6.1 °F -7.8 °F -6.0 °F 58% 30.05 in 10.0 mi West 9.2 mph - N/A   Mostly Cloudy
2:51 AM 7.0 °F -3.3 °F -5.1 °F 58% 30.06 in 10.0 mi NW 5.8 mph - N/A   Mostly Cloudy
3:51 AM 7.0 °F -5.7 °F -4.0 °F 61% 30.08 in 10.0 mi West 8.1 mph - N/A   Mostly Cloudy
4:51 AM 7.0 °F -6.6 °F -4.0 °F 61% 30.09 in 10.0 mi West 9.2 mph - N/A   Overcast
5:51 AM 7.0 °F -6.6 °F -5.1 °F 58% 30.11 in 10.0 mi West 9.2 mph 18.4 mph N/A   Overcast
6:51 AM 7.0 °F -5.7 °F -5.1 °F 58% 30.12 in 10.0 mi WSW 8.1 mph - N/A   Scattered Clouds
7:51 AM 7.0 °F -6.6 °F -4.0 °F 61% 30.14 in 10.0 mi West 9.2 mph - N/A   Scattered Clouds
8:51 AM 9.0 °F -7.9 °F -2.9 °F 59% 30.16 in 10.0 mi West 15.0 mph - N/A   Scattered Clouds
9:51 AM 12.0 °F -2.7 °F -2.0 °F 53% 30.17 in 10.0 mi West 12.7 mph - N/A   Scattered Clouds
10:51 AM 15.1 °F 1.1 °F -0.0 °F 51% 30.17 in 10.0 mi West 12.7 mph - N/A   Scattered Clouds
11:51 AM 17.1 °F 5.0 °F 1.0 °F 50% 30.14 in 10.0 mi West 10.4 mph - N/A   Scattered Clouds
12:51 PM 19.0 °F 5.6 °F 3.0 °F 50% 30.14 in 10.0 mi WNW 13.8 mph - N/A   Scattered Clouds
1:51 PM 19.9 °F 6.2 °F 3.0 °F 48% 30.14 in 10.0 mi WSW 15.0 mph 21.9 mph N/A   Scattered Clouds
2:51 PM 19.9 °F 4.8 °F 3.0 °F 48% 30.15 in 10.0 mi West 18.4 mph 24.2 mph N/A   Scattered Clouds
3:51 PM 19.0 °F 4.5 °F 3.0 °F 50% 30.16 in 10.0 mi WSW 16.1 mph - N/A   Mostly Cloudy
4:51 PM 19.0 °F 4.5 °F 3.9 °F 52% 30.19 in 10.0 mi West 16.1 mph - N/A   Mostly Cloudy
5:51 PM 19.0 °F 7.5 °F 3.9 °F 52% 30.22 in 10.0 mi West 10.4 mph - N/A   Scattered Clouds
6:51 PM 18.0 °F 6.9 °F 3.0 °F 52% 30.24 in 10.0 mi West 9.2 mph - N/A   Scattered Clouds
7:51 PM 16.0 °F 6.3 °F 3.0 °F 57% 30.27 in 10.0 mi WNW 6.9 mph - N/A   Partly Cloudy
8:51 PM 16.0 °F 4.4 °F 3.0 °F 57% 30.28 in 10.0 mi West 9.2 mph - N/A   Partly Cloudy
9:51 PM 14.0 °F 2.9 °F 3.0 °F 62% 30.29 in 10.0 mi West 8.1 mph - N/A   Partly Cloudy
10:51 PM 14.0 °F 2.0 °F 3.9 °F 64% 30.31 in 10.0 mi West 9.2 mph - N/A   Partly Cloudy
11:51 PM 12.9 °F 1.6 °F 1.9 °F 62% 30.31 in 10.0 mi West 8.1 mph - N/A   Partly Cloudy